Regional Weather Roundup
Issued by NWS

Home | Current Version | Previous Version | Text Only | Print | Product List | Glossary On
Versions: 1 2 3 4 5 6 7 8 9 10 11 12 13 14 15 16 17 18 19 20 21 22 23 24 25 26 27 28 29 30 31 32 33 34 35 36 37 38 39 40 41 42 43 44 45 46 47 48 49 50
000
ASUS44 KMEG 301910
RWRTN
TENNESSEE HOURLY STATE WEATHER ROUNDUP
NATIONAL WEATHER SERVICE MEMPHIS TN
200 PM CDT SAT MAY 30 2015

TNZ002-004-019-021-049-052-054-088>092-302000-
WEST TENNESSEE

CITY           SKY/WX    TMP DP  RH WIND       PRES   REMARKS
MEMPHIS INTL   PTSUNNY   83  68  60 SW13G26   29.99F
NWS MEMPHIS      N/A     81 N/A N/A MISG        N/A
JACKSON        PTSUNNY   73  69  87 SE9       30.00R
DYERSBURG      CLOUDY    72  55  56 SW9G17    29.98R
PARIS          PTSUNNY   81  70  69 S21       29.98S
LEXINGTON      SUNNY     77  64  65 S10       30.01F
$$

TNZ008-025-027-028-033-062-065-066-302000-
NORTH MIDDLE TENNESSEE

CITY           SKY/WX    TMP DP  RH WIND       PRES   REMARKS
NASHVILLE      PTSUNNY   79  70  74 S13       30.07F
CLARKSVILLE    MOSUNNY   82  66  58 S14G28    30.00F
SMYRNA         LGT RAIN  72  68  87 S9G20     30.08R FOG
COOKEVILLE     MOSUNNY   82  64  54 SW8       30.08F
CROSSVILLE     SUNNY     79  57  46 S12G20    30.15F
$$

TNZ061-075-076-078-094-096-097-302000-
SOUTH MIDDLE TENNESSEE

CITY           SKY/WX    TMP DP  RH WIND       PRES   REMARKS
FAYETTEVILLE   MOSUNNY  N/A N/A N/A MISG      30.08F
TULLAHOMA      MOSUNNY   82  61  47 S10       30.10F
WINCHESTER     SUNNY     84  63  48 S13       30.10F
MCMINNVILLE    MOSUNNY   84  64  51 S10       30.09F
COLUMBIA       MOSUNNY   82  66  57 SW15G26   30.04F
SHELBYVILLE    PTSUNNY   79  70  73 W6        30.09S
$$

TNZ017-018-042-046-047-302000-
NORTHEAST TENNESSEE

CITY           SKY/WX    TMP DP  RH WIND       PRES   REMARKS
TRI CITIES     PTSUNNY   84  54  35 VRB7      30.13F
ELIZABETHTON   MOCLDY    84  57  39 W6        30.14F
$$

TNZ012-013-036-069-073-074-302000-
CENTRAL EAST TENNESSEE

CITY           SKY/WX    TMP DP  RH WIND       PRES   REMARKS
KNOXVILLE      MOSUNNY   85  59  41 SW12      30.10F
OAK RIDGE      MOSUNNY   87  58  37 VRB6      30.12F
GATLINBURG       N/A     82  61  47 VRB6      30.10F
MORRISTOWN     CLEAR     84  57  39 VRB5      30.13F
$$

TNZ083-085-099-302000-
SOUTHEAST TENNESSEE

CITY           SKY/WX    TMP DP  RH WIND       PRES   REMARKS
CHATTANOOGA    PTSUNNY   85  60  42 S13       30.11F
$$

SKY/WX REPORTED AS FAIR MEANS FEW OR NO CLOUDS BELOW
12 THOUSAND FEET.



USA.gov is the U.S. government's official web portal to all federal, state and local government web resources and services.